Torna al catalogo

COSMOS 2494

SKRL 756

AttivoNavigazionePO
NORAD 39491·PAYLOAD·🇷🇺 Russia

Lanciato Dec 28, 2013 da Plesetsk Cosmodrome

Loading…

Prossimi Passaggi (prossime 24 ore)

TLE

AggiornatoSource: Space-Track

Epoca: Sep 14, 2026, 13:39 UTC

1 39491U 13078B   26257.56905898  .00002178  00000-0  14997-3 0  9998
2 39491  82.4151 162.7399 0014433 260.3492  99.6105 15.05324484692257

Traccia COSMOS 2494 in tempo reale con AllMySat

Download on the App Store